Starlink 5663

operational
NORAD ID: 55347 Int'l Des: 2023-013 Owner: SPXS Country: US Constellation: starlink
LEOCIRCULAR

Über Starlink 5663

Beschreibung wird geladen...

Live-Position

3D-Globus wird geladen...

Nächste Überflüge

Höhenverlauf

Altitude vs Time

uPlot chart will show altitude changes over time

Zweizeiliger Elementsatz

1 55347U 23013S 26033.54247618 .00001368 00000-0 11633-3 0 9999
2 55347 43.0012 131.1984 0000747 257.5599 102.5159 15.02524671166428
Epoch: 2. Feb. 2026 • Age: 14 hours

Aktueller Status

Höhe 560.4 km
Geschwindigkeit 7.58 km/s
Subsatellitenpunkt -8.90°S, 64.79°W
Startdatum 26. Jan. 2023
Alter 3 years
Typ internet

Technische Details

Klassifizierung Payload
Masse 305.00 kg
Trockenmasse 290.00 kg
Gesamtmasse 305.00 kg
Länge 0.20 m
Durchmesser 2.80 m
Spannweite 9.00 m
Form Box + pan
Hersteller SPXS
Bus-Typ Starlink
Phasenstatus In Orbit
Besitzer/Staat SPXS/US

Große Konstellationen

Loading constellations...